カタログに戻る

COSMOS 1275 DEB

運用中PO
NORAD 29295·DEBRIS·🇷🇺 Russia

打ち上げ Jun 4, 1981 から Plesetsk Cosmodrome

Loading…

次のパス (今後24時間)

TLE

最新Source: Space-Track

元期: Sep 11, 2026, 06:25 UTC

1 29295U 81053MS  26254.26802407  .00000624  00000-0  60214-3 0  9990
2 29295  82.9551  79.6800 0110520  12.6641 108.2043 13.75838928703897

AllMySatでCOSMOS 1275 DEBをリアルタイム追跡

Download on the App Store